This is the latest recevied weather packets stored in our database for station/object KF4CQ. If no packets are shown the sender has not sent any weather packets the latest 10 day(s).
| Time | Temp. | Humidity | Pressure | Rain* | Wind** | Luminosity | Snow |
|---|---|---|---|---|---|---|---|
| 1777464647 | 18.89° C | 99% | 1019 hPa | 0 mm | - | 53 W/m² | - |
| 1777464343 | 18.89° C | 99% | 1018.9 hPa | 0 mm | - | 57 W/m² | - |
| 1777464039 | 18.89° C | 99% | 1018.9 hPa | 0 mm | - | 62 W/m² | - |
| 1777463734 | 18.33° C | 99% | 1018.7 hPa | 0 mm | - | 57 W/m² | - |
| 1777463429 | 18.33° C | 99% | 1018.2 hPa | 0 mm | - | 48 W/m² | - |
| 1777463125 | 18.33° C | 99% | 1018.2 hPa | 0 mm | - | 41 W/m² | - |
| 1777462821 | 17.78° C | 99% | 1018.1 hPa | 0 mm | - | 31 W/m² | - |
| 1777462516 | 17.78° C | 99% | 1018.1 hPa | 0 mm | - | 22 W/m² | - |
| 1777462213 | 17.78° C | 99% | 1018.3 hPa | 0 mm | - | 18 W/m² | - |
| 1777461909 | 17.22° C | 99% | 1018.2 hPa | 0 mm | - | 16 W/m² | - |
| 1777461606 | 17.22° C | 99% | 1017.9 hPa | 0 mm | - | 13 W/m² | - |
| 1777461301 | 17.22° C | 99% | 1018 hPa | 0 mm | - | 12 W/m² | - |
| 1777460997 | 17.22° C | 99% | 1018 hPa | 0 mm | - | 10 W/m² | - |
| 1777460693 | 16.67° C | 99% | 1017.9 hPa | 0 mm | - | 7 W/m² | - |
| 1777460389 | 16.67° C | 99% | 1018 hPa | 0 mm | - | 4 W/m² | - |
| 1777460084 | 16.67° C | 99% | 1017.8 hPa | 0 mm | - | 3 W/m² | - |
| 1777459782 | 16.67° C | 99% | 1017.4 hPa | 0 mm | - | 2 W/m² | - |
| 1777459479 | 16.67° C | 99% | 1017.7 hPa | 0 mm | - | 1 W/m² | - |
| 1777459177 | 16.67° C | 99% | 1017.5 hPa | 0 mm | - | 0 W/m² | - |
| 1777458874 | 16.67° C | 99% | 1017.7 hPa | 0 mm | - | 0 W/m² | - |
| 1777458571 | 16.67° C | 99% | 1017.5 hPa | 0 mm | - | 0 W/m² | - |
| 1777458267 | 16.67° C | 99% | 1017.7 hPa | 0 mm | - | 0 W/m² | - |
| 1777457963 | 16.11° C | 99% | 1017.6 hPa | 0 mm | - | 0 W/m² | - |
| 1777457659 | 16.67° C | 99% | 1017.5 hPa | 0 mm | - | 0 W/m² | - |
| 1777457359 | 16.67° C | 99% | 1017.3 hPa | 0 mm | - | 0 W/m² | - |
* Rain latest hour (hover to see other rain measurements)
** Current wind speed in m/s (hover to see current wind gust speed)